Regional Weather Roundup
Issued by NWS Upton, NY

Current Version | Previous Version | Text Only | Print | Product List | Glossary On
Versions: 1 2 3 4 5 6 7 8 9 10 11 12 13 14 15 16 17 18 19 20 21 22 23 24 25 26 27 28 29 30 31 32 33 34 35 36 37 38 39 40 41 42 43 44 45 46 47 48 49 50
000
ASUS41 KOKX 242205
RWROKX

REGIONAL WEATHER ROUNDUP
NATIONAL WEATHER SERVICE NEW YORK NY
600 PM EDT THU JUL 24 2014

NOTE: "FAIR" INDICATES FEW OR NO CLOUDS BELOW 12,000 FEET WITH NO
SIGNIFICANT WEATHER AND/OR OBSTRUCTIONS TO VISIBILITY.

NYZ071-072-176-178-NJZ106-104-242300-
NEW YORK CITY METRO AREA


CITY           SKY/WX    TMP DP  RH WIND       PRES   REMARKS
CENTRAL PARK   PTSUNNY   78  57  48 NE9       29.86F
LAGUARDIA APRT NOT AVBL
KENNEDY INTL   PTSUNNY   82  55  39 NE10G18   29.83F
NEWARK/LIBERTY PTSUNNY   81  58  45 NE6       29.83S
BRNX BOT. GARD   N/A     79  55  44 N10       29.85S
TETERBORO      PTSUNNY   81  56  42 N8        29.82F
$$

NYZ177-179-078>081-242300-
LONG ISLAND NEW YORK

CITY           SKY/WX    TMP DP  RH WIND       PRES   REMARKS
FARMINGDALE    MOSUNNY   78  57  48 N10       29.83F
ISLIP          PTSUNNY   80  58  46 N10       29.81F
SHIRLEY        PTSUNNY   80  60  50 NW9       29.83S
WESTHAMPTON    PTSUNNY   80  60  50 NW8       29.83F
MONTAUK POINT    N/A     74  66  76 E7        29.84S
$$

NYZ052-065-067-242300-
HUDSON VALLEY

CITY           SKY/WX    TMP DP  RH WIND       PRES   REMARKS
WHITE PLAINS   MOSUNNY   77  55  46 NE12      29.85S
NEWBURGH       PTSUNNY   77  59  53 NE12      29.88S
MONTGOMERY     PTSUNNY   77  59  53 N6        29.87S
POUGHKEEPSIE   SUNNY     78  56  46 N10       29.85S
ALBANY         PTSUNNY   77  55  46 NW10      29.87S
$$

NJZ001-105-106-008-010-013-015-019>022-104-242300-
NEW JERSEY

CITY           SKY/WX    TMP DP  RH WIND       PRES   REMARKS
NEWARK/LIBERTY PTSUNNY   81  58  45 NE6       29.83S
TETERBORO      PTSUNNY   81  56  42 N8        29.82F
CALDWELL       SUNNY     80  56  43 VRB6      29.85F
MORRISTOWN     MOSUNNY   81  55  41 N13       29.85F
SOMERVILLE     MOSUNNY   81  54  39 N10       29.84S
LINDEN         MOCLDY    83  57  40 NW9       29.85F
SUSSEX         SUNNY     79  55  43 NW7       29.87F
ANDOVER          N/A     76  53  44 N10       29.88F
TRENTON        MOSUNNY   78  55  44 N7        29.85S
MILLVILLE      SUNNY     79  59  50 NW6       29.85F
ATLANTIC CITY  MOSUNNY   81  60  48 NW10      29.84S
WRIGHTSTOWN    SUNNY     80  58  46 NW8       29.83S
TOMS RIVER     PTSUNNY   81  59  47 W6        29.85R
BELMAR         SUNNY     79  61  53 NW9       29.84S
$$

PAZ047>061-062-071-242300-
EASTERN PENNSYLVANIA

CITY           SKY/WX    TMP DP  RH WIND       PRES   REMARKS
PHILADELPHIA   PTSUNNY   81  54  39 N10       29.85F
ALLENTOWN      PTSUNNY   77  53  43 NW13      29.88S
SCRANTON       PTSUNNY   75  48  38 N12       29.94R
$$

CTZ002-004>006-009-010-012-RIZ004-006-007-MAZ004-011-015-242300-
SOUTHERN NEW ENGLAND
 IN CT

CITY           SKY/WX    TMP DP  RH WIND       PRES   REMARKS
BRADLEY INTL   MOSUNNY   79  58  48 N9        29.83R
HARTFORD       CLOUDY    78  56  46 N8        29.82S
DANBURY        SUNNY     76  56  49 N9        29.87F
WTRBRY/OXFORD  MOSUNNY   75  57  53 N12       29.88S
BRIDGEPORT     MOSUNNY   80  58  46 NW12      29.82F
MERIDEN        MOSUNNY   80  58  46 NW9       29.82F
NEW HAVEN      PTSUNNY   81  60  48 N5        29.82F
CHESTER        FAIR      79  59  50 NW8       29.84F
GROTON         PTSUNNY   72  67  84 SE6       29.82S
WILLIMANTIC    MOSUNNY   81  55  40 N8        29.83R

 IN RI

CITY           SKY/WX    TMP DP  RH WIND       PRES   REMARKS
PROVIDENCE     CLOUDY    76  62  62 E10       29.83R
BLOCK ISLAND   CLOUDY    70  63  78 E8        29.83F
WESTERLY       CLOUDY    74  66  76 SE8       29.83S

 IN MA

CITY           SKY/WX    TMP DP  RH WIND       PRES   REMARKS
BOSTON         NOT AVBL
WORCESTER      PTSUNNY   75  54  47 N9        29.87R
WESTFIELD      PTSUNNY   78  58  49 N7        29.85R
PROVINCETOWN   CLOUDY    66  64  94 NE7       29.84S
NANTUCKET      LGT RAIN  66  64  93 NW14G32   29.82S
$$

ANZ330-335-338-340-345-350-353-355-242300-
COASTAL MARINE OBSERVATIONS


STATION/POSITION TIME  SKY/WX   TEMP    WIND        PRES    VSBY  WAVE
                                AIR SEA DIR/SP/G                  HT/PER
                 (UTC)          (F)     (DEG/KT/KT) (MB)    (MI)  (FT/S)
NY HARB ENTRANCE NOT AVBL
4S FIRE IS       NOT AVBL
23SW MTP         2200            72 72              1009.2          2/ 8
HUDSON CANYON    2200            73 74  350/  8/ 10 1009.6          3/ 7
EXECUTION ROCKS  2200            78 73   20/ 10/ 12   N/A
WESTERN LI SOUND 2200            78     360/  8/ 10   N/A           0
CENTRAL LI SOUND 2100            76 74  260/  6/  8   N/A           0
EASTERN LI SOUND 2100            71 68  140/  8/ 10   N/A
ROBBINS REEF     2200            78      30/ 12/ 13   N/A
$$


>>>>>>>>>>>>>>>>>>>>>>>>>>>> KEY <<<<<<<<<<<<<<<<<<<<<<<<<<<
>                                                          <
>     SKY/WX - SKY CONDITION/PRESENT WEATHER               <
>     TMP    - TEMPERATURE IN FAHRENHEIT                   <
>     DP     - DEWPOINT IN FAHRENHEIT                      <
>     RH     - RELATIVE HUMIDITY IN PERCENT                <
>     WIND   - DIRECTION AND SPEED IN MPH                  <
>     PRES   - MEAN SEA LEVEL PRESSURE IN INCHES OF HG     <
>     WCI    - WIND CHILL INDEX                            <
>     VSB    - VISIBILITY IN MILES                         <
>     HX     - HEAT INDEX                                  <
>     TC     - TEMPERATURE IN CELSIUS                      <
>     VRB    - VARIABLE WIND DIRECTION                     <
>                                                          <
>>>>>>>>>>>>>>>>>>>>>>>>>>>> KEY <<<<<<<<<<<<<<<<<<<<<<<<<<<




USA.gov is the U.S. government's official web portal to all federal, state and local government web resources and services.